| time (UTC) | temp F | wind direction | speed MPH | gust MPH | rain 1hr in | rain 24hr in | rain mn in | humidity % | barometer mb |
| 20260507004028 | 53 | 185 | 0.0 | 1.0 | 0.03 | 0.10 | 0.03 | 96 | 1013.0 |
| 20260507003023 | 54 | 185 | 0.0 | 1.0 | 0.02 | 0.09 | 0.02 | 96 | 1013.2 |
| 20260507002018 | 54 | 182 | 1.0 | 1.0 | 0.01 | 0.08 | 0.01 | 95 | 1013.2 |
| 20260507001033 | 54 | 162 | 1.0 | 3.0 | 0.01 | 0.08 | 0.01 | 93 | 1013.1 |
| 20260507000027 | 55 | 180 | 0.0 | 1.0 | 0.00 | 0.07 | 0.00 | 92 | 1013.1 |
| 20260506235021 | 55 | 183 | 0.0 | 2.0 | 0.00 | 0.07 | 0.00 | 91 | 1013.1 |
| 20260506234036 | 55 | 177 | 1.0 | 2.0 | 0.00 | 0.07 | 0.00 | 90 | 1013.1 |
| 20260506233030 | 55 | 144 | 1.0 | 7.0 | 0.00 | 0.07 | 0.00 | 90 | 1013.0 |
| 20260506232047 | 55 | 170 | 1.0 | 2.0 | 0.00 | 0.07 | 0.00 | 90 | 1013.2 |
| 20260506231019 | 55 | 161 | 0.0 | 2.0 | 0.00 | 0.07 | 0.00 | 90 | 1013.2 |
| 20260506230034 | 55 | 182 | 1.0 | 2.0 | 0.00 | 0.07 | 0.00 | 90 | 1013.2 |
| 20260506225029 | 55 | 187 | 1.0 | 3.0 | 0.00 | 0.07 | 0.00 | 90 | 1013.3 |
| 20260506224023 | 55 | 169 | 1.0 | 2.0 | 0.00 | 0.07 | 0.00 | 91 | 1013.3 |
| 20260506223017 | 55 | 181 | 1.0 | 2.0 | 0.00 | 0.07 | 0.00 | 91 | 1013.4 |
| 20260506222032 | 55 | 176 | 1.0 | 2.0 | 0.00 | 0.07 | 0.00 | 91 | 1013.4 |
| 20260506221028 | 56 | 175 | 1.0 | 2.0 | 0.00 | 0.07 | 0.00 | 90 | 1013.4 |
| 20260506220021 | 56 | 168 | 1.0 | 3.0 | 0.00 | 0.07 | 0.07 | 88 | 1013.5 |
| 20260506215035 | 56 | 177 | 1.0 | 3.0 | 0.00 | 0.07 | 0.07 | 86 | 1013.4 |
| 20260506214030 | 56 | 164 | 1.0 | 3.0 | 0.00 | 0.07 | 0.07 | 86 | 1013.4 |
| 20260506213024 | 56 | 192 | 1.0 | 2.0 | 0.00 | 0.07 | 0.07 | 87 | 1013.3 |
| 20260506212038 | 56 | 166 | 1.0 | 2.0 | 0.00 | 0.07 | 0.07 | 91 | 1013.2 |
| 20260506211033 | 56 | 181 | 0.0 | 1.0 | 0.00 | 0.07 | 0.07 | 93 | 1013.4 |
| 20260506210027 | 56 | 175 | 0.0 | 1.0 | 0.00 | 0.07 | 0.07 | 93 | 1013.4 |
| 20260506205024 | 56 | 166 | 0.0 | 1.0 | 0.00 | 0.07 | 0.07 | 94 | 1013.5 |
| 20260506204016 | 56 | 235 | 0.0 | 1.0 | 0.00 | 0.07 | 0.07 | 93 | 1013.7 |
| 20260506203031 | 56 | 157 | 0.0 | 1.0 | 0.00 | 0.07 | 0.07 | 93 | 1013.7 |
| 20260506202024 | 56 | 177 | 0.0 | 1.0 | 0.00 | 0.07 | 0.07 | 94 | 1013.8 |
| 20260506201020 | 56 | 182 | 0.0 | 1.0 | 0.00 | 0.07 | 0.07 | 93 | 1013.7 |
| 20260506200035 | 56 | 147 | 0.0 | 1.0 | 0.00 | 0.07 | 0.07 | 93 | 1013.7 |
| 20260506195030 | 56 | 150 | 0.0 | 1.0 | 0.00 | 0.07 | 0.07 | 93 | 1013.8 |
| 20260506194027 | 56 | 0.0 | 0.0 | 0.00 | 0.07 | 0.07 | 93 | 1013.7 | |
| 20260506193020 | 56 | 347 | 0.0 | 1.0 | 0.00 | 0.07 | 0.07 | 92 | 1013.6 |
| 20260506192036 | 56 | 49 | 0.0 | 1.0 | 0.00 | 0.07 | 0.07 | 92 | 1013.6 |
| 20260506191030 | 56 | 37 | 0.0 | 2.0 | 0.00 | 0.07 | 0.07 | 92 | 1013.2 |
| 20260506190105 | 56 | 355 | 0.0 | 1.0 | 0.00 | 0.07 | 0.07 | 92 | 1013.2 |
| 20260506185020 | 56 | 350 | 0.0 | 2.0 | 0.00 | 0.07 | 0.07 | 92 | 1013.1 |
| 20260506184035 | 56 | 314 | 0.0 | 2.0 | 0.02 | 0.07 | 0.07 | 91 | 1013.0 |
| 20260506183029 | 56 | 357 | 0.0 | 1.0 | 0.02 | 0.07 | 0.07 | 91 | 1013.0 |
| 20260506182023 | 56 | 359 | 0.0 | 2.0 | 0.02 | 0.07 | 0.07 | 90 | 1012.9 |
| 20260506181018 | 56 | 243 | 0.0 | 1.0 | 0.02 | 0.07 | 0.07 | 90 | 1013.0 |
| 20260506180032 | 57 | 4 | 1.0 | 1.0 | 0.02 | 0.07 | 0.07 | 88 | 1013.0 |
| 20260506175109 | 58 | 95 | 1.0 | 3.0 | 0.02 | 0.07 | 0.07 | 83 | 1012.9 |
| 20260506174021 | 59 | 113 | 1.0 | 2.0 | 0.00 | 0.05 | 0.05 | 80 | 1013.0 |
| 20260506173036 | 59 | 289 | 0.0 | 2.0 | 0.00 | 0.05 | 0.05 | 80 | 1012.9 |
| 20260506172030 | 59 | 117 | 1.0 | 3.0 | 0.00 | 0.05 | 0.05 | 79 | 1012.7 |
| 20260506171024 | 60 | 102 | 0.0 | 1.0 | 0.00 | 0.05 | 0.05 | 79 | 1012.7 |
| 20260506170039 | 60 | 154 | 0.0 | 1.0 | 0.00 | 0.05 | 0.05 | 77 | 1012.6 |
| 20260506165034 | 60 | 194 | 1.0 | 4.0 | 0.00 | 0.05 | 0.05 | 76 | 1012.8 |
| 20260506164028 | 60 | 173 | 0.0 | 1.0 | 0.00 | 0.05 | 0.05 | 75 | 1012.9 |
| 20260506163024 | 60 | 223 | 0.0 | 1.0 | 0.00 | 0.05 | 0.05 | 75 | 1013.0 |
| 20260506162018 | 60 | 197 | 0.0 | 1.0 | 0.00 | 0.05 | 0.05 | 77 | 1013.0 |
| 20260506161033 | 60 | 141 | 0.0 | 1.0 | 0.00 | 0.05 | 0.05 | 76 | 1012.8 |
| 20260506160027 | 60 | 217 | 0.0 | 1.0 | 0.00 | 0.05 | 0.05 | 76 | 1012.9 |
| 20260506155022 | 61 | 93 | 0.0 | 2.0 | 0.00 | 0.05 | 0.05 | 75 | 1013.1 |
| 20260506154016 | 61 | 150 | 1.0 | 3.0 | 0.00 | 0.05 | 0.05 | 73 | 1013.0 |
| 20260506153032 | 61 | 189 | 0.0 | 2.0 | 0.00 | 0.05 | 0.05 | 75 | 1013.1 |
| 20260506152027 | 61 | 138 | 1.0 | 3.0 | 0.00 | 0.05 | 0.05 | 74 | 1013.0 |
| 20260506151023 | 61 | 144 | 1.0 | 2.0 | 0.00 | 0.05 | 0.05 | 74 | 1013.1 |
| 20260506150017 | 61 | 106 | 0.0 | 3.0 | 0.00 | 0.05 | 0.05 | 73 | 1013.1 |
| 20260506145031 | 61 | 141 | 1.0 | 3.0 | 0.00 | 0.05 | 0.05 | 74 | 1013.1 |
| 20260506144026 | 62 | 193 | 1.0 | 3.0 | 0.00 | 0.05 | 0.05 | 74 | 1013.1 |
| 20260506143021 | 62 | 153 | 1.0 | 2.0 | 0.00 | 0.05 | 0.05 | 69 | 1013.0 |
| 20260506142035 | 63 | 208 | 1.0 | 4.0 | 0.00 | 0.05 | 0.05 | 67 | 1012.9 |
| 20260506141030 | 63 | 188 | 2.0 | 6.0 | 0.00 | 0.05 | 0.05 | 66 | 1013.1 |
| 20260506140024 | 64 | 173 | 2.0 | 7.0 | 0.00 | 0.05 | 0.05 | 65 | 1013.0 |
| 20260506135039 | 64 | 160 | 1.0 | 4.0 | 0.00 | 0.05 | 0.05 | 64 | 1013.0 |
| 20260506134034 | 64 | 220 | 2.0 | 7.0 | 0.00 | 0.05 | 0.05 | 64 | 1013.0 |
| 20260506133028 | 64 | 191 | 2.0 | 6.0 | 0.00 | 0.05 | 0.05 | 64 | 1013.1 |
| 20260506132022 | 65 | 178 | 2.0 | 6.0 | 0.00 | 0.05 | 0.05 | 64 | 1013.1 |
| 20260506131019 | 65 | 170 | 2.0 | 4.0 | 0.00 | 0.05 | 0.05 | 63 | 1013.0 |
| 20260506130033 | 66 | 148 | 1.0 | 3.0 | 0.00 | 0.05 | 0.05 | 63 | 1013.1 |
| 20260506125028 | 66 | 136 | 1.0 | 4.0 | 0.00 | 0.05 | 0.05 | 62 | 1013.1 |
| 20260506124022 | 65 | 172 | 2.0 | 6.0 | 0.00 | 0.05 | 0.05 | 60 | 1013.2 |
| 20260506123017 | 65 | 182 | 2.0 | 7.0 | 0.00 | 0.05 | 0.05 | 62 | 1013.4 |
| 20260506122032 | 66 | 171 | 3.0 | 7.0 | 0.00 | 0.05 | 0.05 | 60 | 1013.2 |
| 20260506121027 | 66 | 203 | 2.0 | 4.0 | 0.00 | 0.05 | 0.05 | 60 | 1013.2 |
| 20260506120022 | 66 | 182 | 3.0 | 8.0 | 0.00 | 0.05 | 0.05 | 64 | 1013.2 |
| 20260506115035 | 67 | 191 | 1.0 | 4.0 | 0.00 | 0.05 | 0.05 | 70 | 1013.2 |
| 20260506114032 | 68 | 196 | 1.0 | 4.0 | 0.00 | 0.05 | 0.05 | 68 | 1013.3 |
| 20260506113046 | 67 | 207 | 1.0 | 3.0 | 0.00 | 0.05 | 0.05 | 71 | 1013.1 |
| 20260506112020 | 67 | 147 | 1.0 | 4.0 | 0.00 | 0.05 | 0.05 | 73 | 1013.1 |
| 20260506111034 | 66 | 182 | 1.0 | 4.0 | 0.00 | 0.05 | 0.05 | 72 | 1013.2 |
| 20260506110029 | 65 | 192 | 1.0 | 6.0 | 0.00 | 0.05 | 0.05 | 77 | 1013.4 |
| 20260506105024 | 64 | 139 | 1.0 | 3.0 | 0.00 | 0.05 | 0.05 | 79 | 1013.5 |
| 20260506104018 | 63 | 181 | 1.0 | 4.0 | 0.00 | 0.05 | 0.05 | 81 | 1013.5 |
| 20260506103052 | 63 | 166 | 2.0 | 6.0 | 0.00 | 0.05 | 0.05 | 82 | 1013.4 |
| 20260506102027 | 62 | 174 | 2.0 | 6.0 | 0.01 | 0.05 | 0.05 | 83 | 1013.4 |
| 20260506101021 | 61 | 147 | 2.0 | 7.0 | 0.01 | 0.05 | 0.05 | 83 | 1013.5 |
| 20260506100036 | 61 | 200 | 1.0 | 2.0 | 0.01 | 0.05 | 0.05 | 85 | 1013.5 |
| 20260506095051 | 61 | 173 | 2.0 | 4.0 | 0.01 | 0.05 | 0.05 | 85 | 1013.4 |
| 20260506094025 | 58 | 164 | 1.0 | 4.0 | 0.01 | 0.05 | 0.05 | 87 | 1013.6 |
| 20260506093019 | 58 | 183 | 1.0 | 4.0 | 0.01 | 0.05 | 0.05 | 90 | 1013.5 |
| 20260506092035 | 57 | 149 | 1.0 | 2.0 | 0.00 | 0.04 | 0.04 | 89 | 1013.6 |
| 20260506091029 | 57 | 156 | 1.0 | 3.0 | 0.00 | 0.04 | 0.04 | 88 | 1013.6 |
| 20260506090023 | 58 | 180 | 1.0 | 2.0 | 0.00 | 0.04 | 0.04 | 89 | 1013.4 |
| 20260506085017 | 57 | 169 | 1.0 | 2.0 | 0.00 | 0.04 | 0.04 | 90 | 1013.5 |
| 20260506084052 | 57 | 177 | 1.0 | 2.0 | 0.00 | 0.04 | 0.04 | 89 | 1013.3 |
| 20260506083027 | 58 | 170 | 1.0 | 3.0 | 0.00 | 0.04 | 0.04 | 88 | 1013.1 |
| 20260506082021 | 58 | 181 | 1.0 | 3.0 | 0.00 | 0.04 | 0.04 | 87 | 1013.1 |
| 20260506081037 | 58 | 177 | 1.0 | 3.0 | 0.00 | 0.04 | 0.04 | 87 | 1012.9 |
| 20260506073016 | 57 | 177 | 1.0 | 6.0 | 0.00 | 0.04 | 0.04 | 89 | 1012.9 |
| 20260506072031 | 56 | 175 | 1.0 | 2.0 | 0.00 | 0.04 | 0.04 | 92 | 1013.1 |
| 20260506071027 | 56 | 181 | 1.0 | 2.0 | 0.00 | 0.04 | 0.04 | 92 | 1013.2 |
| 20260506062019 | 55 | 178 | 0.0 | 1.0 | 0.03 | 0.09 | 0.04 | 95 | 1013.2 |
| 20260506061032 | 55 | 179 | 1.0 | 2.0 | 0.03 | 0.16 | 0.04 | 95 | 1013.2 |
| 20260506051018 | 55 | 174 | 0.0 | 1.0 | 0.00 | 0.21 | 0.01 | 94 | 1013.2 |
| 20260506045031 | 54 | 187 | 0.0 | 1.0 | 0.00 | 0.21 | 0.01 | 94 | 1013.3 |
| 20260506044022 | 54 | 168 | 0.0 | 1.0 | 0.00 | 0.21 | 0.01 | 93 | 1013.3 |
| 20260506043017 | 54 | 172 | 0.0 | 1.0 | 0.00 | 0.23 | 0.01 | 93 | 1013.3 |
| 20260506042031 | 54 | 173 | 0.0 | 2.0 | 0.00 | 0.23 | 0.01 | 92 | 1013.3 |
| 20260506041026 | 54 | 171 | 0.0 | 2.0 | 0.00 | 0.24 | 0.01 | 93 | 1013.2 |
| 20260506040020 | 54 | 181 | 0.0 | 1.0 | 0.00 | 0.25 | 0.01 | 92 | 1013.2 |
| 20260506035037 | 54 | 0.0 | 0.0 | 0.00 | 0.27 | 0.01 | 92 | 1013.2 | |
| 20260506034050 | 54 | 169 | 0.0 | 1.0 | 0.00 | 0.29 | 0.01 | 92 | 1013.2 |
| 20260506033026 | 54 | 177 | 0.0 | 1.0 | 0.00 | 0.30 | 0.01 | 92 | 1013.2 |
| 20260506032020 | 54 | 228 | 0.0 | 1.0 | 0.00 | 0.32 | 0.01 | 93 | 1013.3 |
| 20260506031035 | 54 | 203 | 0.0 | 1.0 | 0.00 | 0.34 | 0.01 | 93 | 1013.3 |
| 20260506030029 | 54 | 174 | 0.0 | 1.0 | 0.01 | 0.36 | 0.01 | 92 | 1013.5 |
| 20260506025024 | 54 | 0.0 | 0.0 | 0.01 | 0.37 | 0.01 | 92 | 1013.5 | |
| 20260506024019 | 55 | 156 | 0.0 | 1.0 | 0.01 | 0.37 | 0.01 | 91 | 1013.5 |
| 20260506023033 | 54 | 357 | 0.0 | 2.0 | 0.01 | 0.37 | 0.01 | 89 | 1013.7 |
| 20260506022028 | 55 | 0.0 | 0.0 | 0.01 | 0.37 | 0.01 | 88 | 1013.7 | |
| 20260506021021 | 55 | 358 | 1.0 | 2.0 | 0.01 | 0.37 | 0.01 | 86 | 1013.9 |
| 20260506020036 | 56 | 189 | 0.0 | 1.0 | 0.00 | 0.36 | 0.00 | 85 | 1013.9 |
| 20260506015030 | 56 | 166 | 0.0 | 1.0 | 0.00 | 0.36 | 0.00 | 83 | 1013.8 |
| 20260506014025 | 56 | 175 | 0.0 | 1.0 | 0.00 | 0.36 | 0.00 | 83 | 1013.8 |
| 20260506013019 | 56 | 145 | 0.0 | 2.0 | 0.00 | 0.36 | 0.00 | 82 | 1013.8 |
| 20260506012053 | 56 | 159 | 1.0 | 2.0 | 0.00 | 0.36 | 0.00 | 79 | 1013.8 |
| 20260506011048 | 57 | 175 | 1.0 | 2.0 | 0.00 | 0.36 | 0.00 | 75 | 1013.8 |
| 20260506010044 | 56 | 175 | 1.0 | 2.0 | 0.00 | 0.36 | 0.00 | 75 | 1013.8 |
| 20260506005016 | 56 | 188 | 0.0 | 1.0 | 0.00 | 0.36 | 0.00 | 76 | 1013.9 |